User: anonymous   Login
Location: Nebula Knoll Observatory
(43.6666°N, 71.0000°W)
Time: 06:51:22
(UTC-04:00)
Language:

Cosmos 1782 - Orbit

View from above orbital plane
View from above orbital plane
View from above satellite
View from above satellite

Ground track
Ground track

The orbit data is extracted from the following two-line orbital elements,

1 16986U 86074A   17204.77628598 -.00000086 +00000-0 -78260-5 0  9995
2 16986 082.5071 085.6439 0010559 207.8802 152.1861 15.06594233655184
Epoch (UTC): 23 July 2017 18:37:51
Eccentricity: 0.0010559
inclination: 82.5071°
perigee height: 539 km
apogee height: 554 km
right ascension of ascending node: 85.6439°
argument of perigee: 207.8802°
revolutions per day: 15.06594233
mean anomaly at epoch: 152.1861°
orbit number at epoch: 65518

The dashed part of the orbit path shows where the satellite is in the earth's shadow,  

DLR